Regional Weather Roundup
Issued by NWS

Home | Current Version | Previous Version | Text Only | Print | Product List | Glossary On
Versions: 1 2 3 4 5 6 7 8 9 10 11 12 13 14 15 16 17 18 19 20 21 22 23 24 25 26 27 28 29 30 31 32 33 34 35 36 37 38 39 40 41 42 43 44 45 46 47 48 49 50
000
ASUS43 KMKX 260410
RWRWI

WISCONSIN REGIONAL WEATHER ROUNDUP
NATIONAL WEATHER SERVICE MILWAUKEE/SULLIVAN WI
1100 PM CDT MON MAY 25 2015

NOTE: "FAIR" INDICATES FEW OR NO CLOUDS BELOW 12,000 FEET WITH NO
SIGNIFICANT WEATHER AND/OR OBSTRUCTIONS TO VISIBILITY.

WIZ001-002-006>008-014>016-023>028-260500-
NORTHWEST WISCONSIN

CITY           SKY/WX    TMP DP  RH WIND       PRES   REMARKS
SUPERIOR ARPT  DRIZZLE   46  46  99 CALM      29.79R
ASHLAND        CLOUDY    49  49 100 NE3       29.76F FOG
HAYWARD        MOCLDY    57  55  93 CALM      29.76F
SIREN          PTCLDY    57  56  96 CALM      29.75S
CUMBERLAND     CLEAR     57  55  94 S6        29.78R
RICE LAKE      CLEAR     61  57  87 SE5       29.78R
CHETEK         PTCLDY    60  59  98 SE7       29.78R
LADYSMITH      CLOUDY    64  60  86 S3        29.80R
EAU CLAIRE     PTCLDY    61  60  97 CALM      29.78R FOG
MENOMONIE      MOCLDY    64  61  91 CALM      29.78R
NEW RICHMOND   CLEAR     62  61  96 S5        29.78R
OSCEOLA        PTCLDY    59  59  99 S3        29.80R
$$

WIZ003>005-009-010-017-018-260500-
NORTH CENTRAL WISCONSIN

CITY           SKY/WX    TMP DP  RH WIND       PRES   REMARKS
MANITOWISH WTR CLOUDY    59  58  97 S5        29.79S
ARBOR VITAE    MOCLDY    59  58  94 S5        29.80S
WOODRUFF       MOCLDY    59  58  94 S5        29.80S
RHINELANDER    MOCLDY    62  59  90 SW7       29.82R
EAGLE RIVER    PTCLDY    60  58  93 SW3       29.80S
LAND O LAKES   PTCLDY    59  57  92 CALM      29.80S
PHILLIPS       MOCLDY    60  58  94 CALM      29.79S
TOMAHAWK       CLOUDY    60  59  95 CALM      29.82S
MEDFORD        MOCLDY    59  59  99 S5        29.81S
MERRILL        PTCLDY    56  56 100 CALM      29.83S FOG
$$

WIZ029-030-035-036-043>047-260500-
CENTRAL WISCONSIN

CITY           SKY/WX    TMP DP  RH WIND       PRES   REMARKS
WAUSAU         MOCLDY    58  57  97 SE5       29.82R
MOSINEE        PTCLDY    59  59 100 S6        29.83F
MARSHFIELD     PTCLDY    61  58  90 S8        29.83R
STEVENS POINT  MOCLDY    60  59  96 CALM      29.84S
WAUPACA        FAIR      62  62  97 CALM      29.84S
WAUTOMA        NOT AVBL
WISC RAPIDS    PTCLDY    62  59  90 S6        29.85R
CAMP DOUGLAS   PTCLDY    68  68 100 VRB7      29.83S
$$

WIZ011>013-019>022-031-037>040-048>050-260500-
NORTHEAST WISCONSIN

CITY           SKY/WX    TMP DP  RH WIND       PRES   REMARKS
ANTIGO         PTCLDY    56  55  98 CALM      29.83S
SHAWANO        PTCLDY    64  61  87 CALM      29.83S
OCONTO         CLOUDY    65  62  91 SW3       29.82R
STURGEON BAY   PTCLDY    64  61  88 S8        29.86S
GREEN BAY      PTCLDY    64  61  90 S5        29.85R
MANITOWOC      NOT AVBL
APPLETON       NOT AVBL
CLINTONVILLE   MOCLDY    63  61  94 SW3       29.83S
OSHKOSH        PTCLDY    69  60  73 S12       29.86R
$$

WIZ032>034-041-042-053>061-260500-
SOUTHWEST WISCONSIN

CITY           SKY/WX    TMP DP  RH WIND       PRES   REMARKS
LA CROSSE      PTCLDY    70  59  68 S12       29.79S
SPARTA         PTCLDY    64  59  86 SW3       29.83R
VIROQUA        PTCLDY    68  62  79 S8        29.85R
BOSCOBEL       PTCLDY    70  62  76 VRB3      29.86R
PRAIRIE DU CHI MOCLDY    72  60  67 S7        29.84S
PLATTEVILLE    CLEAR     68  63  83 S12       29.90R
$$

WIZ056-057-062-063-064-067-068-260500-
SOUTH CENTRAL WISCONSIN

CITY           SKY/WX    TMP DP  RH WIND       PRES   REMARKS
REEDSBURG      MOCLDY    68  62  80 S10       29.86R
BARABOO/DELLS  MOCLDY    68  59  72 S10       29.87R
LONE ROCK      NOT AVBL
MINERAL POINT  PTCLDY    70  61  73 S9        29.89S
MADISON        PTCLDY    70  59  68 S8        29.89R
MIDDLETON      PTCLDY    71  59  64 SW9       29.89R
WATERTOWN      PTCLDY    67  63  85 S7        29.90R
MONROE         PTCLDY    68  61  77 S9        29.91R
JANESVILLE     PTCLDY    70  59  68 S7        29.91R
$$

WIZ051-052-058>065-066-070>072-260500-
SOUTHEAST WISCONSIN

CITY           SKY/WX    TMP DP  RH WIND       PRES   REMARKS
MILWAUKEE      PTCLDY    71  60  68 SW12      29.92R
WAUKESHA       PTCLDY    66  59  77 S6        29.93R
MILWAUKEE/TIMM PTCLDY    70  59  68 S9        29.91R
RACINE         CLEAR     71  59  65 SW10      29.95R
BURLINGTON     PTCLDY    64  59  83 SW6       29.94R
KENOSHA        CLEAR     69  60  73 S8        29.94R
FOND DU LAC    PTCLDY    69  59  70 S9        29.88R
SHEBOYGAN      CLEAR     67  61  81 SW9       29.89R
WEST BEND      PTCLDY    68  61  77 S7        29.90R
JUNEAU         PTCLDY    68  60  74 S8        29.91R
$$

LSZ147-162-260500-
LAKE SUPERIOR

STATION/POSITION TIME  TEMP    WIND        PRES    WAVE
                       AIR SEA DIR/SP/G            HT/PER
                 (UTC) (F)     (DEG/KT/KT) (MB)    (FT/S)
W MID LAKE BUOY  0250   39 36  190/  2/  6 1081.0R   2/ 4
DEVILS ISLAND    0300   42     340/  4/  5 1086.0R
PORT WING        0240   42     360/  3/  4 1085.0R
SAXON HARBOR     0300   48        CALM     1078.0R
$$

LMZ867-665-643>646-260500-
LAKE MICHIGAN

STATION/POSITION TIME  TEMP    WIND        PRES    WAVE
                       AIR SEA DIR/SP/G            HT/PER
                 (UTC) (F)     (DEG/KT/KT) (MB)    (FT/S)
CHAMBERS ISLAND  0300   62     170/  6/ 11   N/A
N MID LAKE BUOY  0250   42 37  200/ 12/ 14   N/A     3/ 6
NORTHPORT PIER   0300   60     180/  4/  7   N/A
SISTER BAY       0317   66     210/ 13/ 16   N/A
KEWAUNEE LAKESHO 0300   67     220/  6/  8   N/A
SHEBOYGAN LAKESH 0300   69     200/ 10/ 11   N/A
PORT WASHINGTON  0200   73     200/  6/  9   N/A
ATWATER BUOY     0300   58 45  160/  8/ 10   N/A
MILWAUKEE LAKESH 0300   72     200/ 10/ 12   N/A
S MID LAKE BUOY  0250   49 38  200/ 12/ 12   N/A     1/ 3
KENOSHA   LAKESH 0300   73     200/  7/  9   N/A
$$

TC  - TEMPERATURE IN CELSIUS
VSB - VISIBILITY IN STATUTE MILES
WCI - WIND CHILL INDEX
HX  - HEAT INDEX




USA.gov is the U.S. government's official web portal to all federal, state and local government web resources and services.